DW9672 Weather Reports


time (UTC)temp
F
wind
direction
speed
knots
gust
knots
rain 1hr
in
rain 24hr
in
rain mn
in
humidity
%
barometer
mb
20260906123038 69 62 0.0 0.0 0.00 0.01 0.00 97 1019.2
20260906121519 69 62 0.0 1.7 0.00 0.01 0.00 96 1018.9
20260906120057 69 53 0.0 0.0 0.00 0.01 0.00 96 1018.3
20260906114604 69 53 0.0 0.0 0.00 0.01 0.00 96 1018.2
20260906113044 69 54 0.0 3.5 0.00 0.01 0.00 96 1018.1
20260906111543 69 67 0.0 4.3 0.00 0.01 0.00 96 1017.9
20260906110040 69 42 0.9 3.5 0.00 0.01 0.00 95 1017.7
20260906104538 70 63 0.0 2.6 0.00 0.01 0.00 95 1017.4
20260906103037 70 33 0.0 2.6 0.00 0.01 0.00 95 1017.3
20260906101536 70 41 0.0 4.3 0.00 0.01 0.00 95 1017.3
20260906100035 70 47 0.0 2.6 0.00 0.01 0.00 95 1017.2
20260906094533 70 11 0.0 2.6 0.00 0.01 0.00 95 1017.1
20260906093021 70 22 1.7 4.3 0.00 0.01 0.00 95 1017.1
20260906091517 70 46 0.9 3.5 0.00 0.01 0.00 95 1017.2
20260906090007 70 46 0.0 3.5 0.00 0.01 0.00 95 1017.0
20260906084504 70 25 0.9 3.5 0.00 0.01 0.00 95 1017.0
20260906083004 70 31 0.0 2.6 0.00 0.01 0.00 95 1016.9
20260906081508 70 32 0.0 2.6 0.00 0.01 0.00 95 1016.8
20260906080006 71 19 0.0 0.0 0.00 0.01 0.00 94 1016.9
20260906074606 71 35 0.0 1.7 0.00 0.01 0.00 94 1017.1
20260906073058 71 35 0.0 0.0 0.00 0.01 0.00 93 1017.0
20260906071557 71 34 0.0 0.0 0.00 0.01 0.00 93 1017.1
20260906070039 72 22 0.0 0.0 0.00 0.01 0.00 93 1017.2
20260906064539 72 23 0.0 1.7 0.00 0.01 0.00 92 1017.3
20260906063021 72 28 0.0 0.0 0.00 0.01 0.00 92 1017.4
20260906061518 72 28 0.0 1.7 0.00 0.01 0.00 92 1017.2
20260906060008 72 44 1.7 3.5 0.00 0.01 0.00 91 1017.1
20260906054506 72 42 0.0 1.7 0.00 0.01 0.00 91 1017.1
20260906053005 72 56 0.0 2.6 0.00 0.01 0.00 91 1017.0
20260906051505 72 66 0.0 2.6 0.00 0.01 0.00 90 1016.9
20260906050004 72 63 0.0 3.5 0.00 0.01 0.00 90 1016.7
20260906044501 72 123 0.0 1.7 0.00 0.01 0.00 90 1016.5
20260906043103 72 82 1.7 5.2 0.00 0.01 0.00 90 1016.4
20260906041601 72 14 0.0 5.2 0.00 0.01 0.00 90 1016.2
20260906040046 72 139 0.0 7.0 0.00 0.01 0.00 90 1016.2
20260906034545 72 140 0.0 5.2 0.00 0.01 0.01 91 1016.0
20260906033057 72 61 0.0 2.6 0.00 0.01 0.01 90 1016.0
20260906031543 73 80 1.7 6.1 0.00 0.01 0.01 90 1016.0
20260906030045 73 82 0.0 5.2 0.00 0.01 0.01 89 1016.1
20260906024545 74 136 1.7 6.1 0.00 0.01 0.01 89 1016.0
20260906023048 75 102 0.0 0.9 0.00 0.01 0.01 89 1015.9
20260906021536 75 42 0.0 0.9 0.00 0.01 0.01 89 1015.8
20260906020016 76 40 0.0 3.5 0.00 0.01 0.01 88 1015.4
20260906014515 76 65 0.0 5.2 0.00 0.01 0.01 88 1015.2
20260906013115 77 20 0.9 5.2 0.00 0.01 0.01 88 1014.9
20260906011605 77 26 0.0 0.0 0.00 0.01 0.01 87 1015.0
20260906010058 77 26 0.0 0.0 0.00 0.01 0.01 86 1015.0
20260906004539 78 26 0.0 1.7 0.00 0.02 0.01 85 1015.0
20260906003038 79 32 0.0 0.0 0.00 0.02 0.01 83 1014.8
20260906001521 79 32 0.0 2.6 0.00 0.02 0.01 82 1014.8
20260906000036 80 36 0.9 5.2 0.00 0.02 0.01 81 1014.9
20260905234507 80 29 0.9 5.2 0.00 0.02 0.01 81 1014.8
20260905233006 81 103 0.9 5.2 0.00 0.02 0.01 80 1014.5
20260905231505 82 96 1.7 9.6 0.00 0.02 0.01 79 1014.5
20260905230004 83 60 3.5 8.7 0.00 0.02 0.01 77 1014.5
20260905224504 84 51 3.5 9.6 0.00 0.02 0.01 77 1014.3
20260905223007 85 58 4.3 8.7 0.00 0.02 0.01 75 1014.1
20260905221502 86 19 1.7 9.6 0.00 0.02 0.01 76 1014.0
20260905220003 86 74 3.5 9.6 0.00 0.02 0.01 75 1014.0
20260905214547 87 38 3.5 7.8 0.00 0.02 0.01 73 1013.7
20260905213047 87 355 0.9 8.7 0.00 0.02 0.01 74 1013.6
20260905211552 87 67 2.6 7.8 0.00 0.02 0.01 72 1013.6
20260905210048 88 25 3.5 8.7 0.00 0.02 0.01 72 1013.4
20260905204547 88 48 4.3 8.7 0.00 0.02 0.01 73 1013.4
20260905201548 88 52 4.3 7.8 0.00 0.02 0.01 75 1013.7
20260905200048 88 92 1.7 7.8 0.00 0.02 0.01 75 1013.8
20260905194549 88 15 6.1 11.3 0.00 0.02 0.01 74 1013.7
20260905191550 88 9 4.3 8.7 0.01 0.02 0.01 73 1013.7
20260905190047 88 355 3.5 8.7 0.01 0.02 0.01 74 1013.8
20260905184608 88 28 2.6 6.1 0.01 0.02 0.01 73 1013.9
20260905181523 87 23 2.6 6.1 0.00 0.01 0.00 76 1014.2
20260905180027 88 49 3.5 8.7 0.00 0.01 0.00 76 1014.3
20260905174508 88 43 3.5 6.1 0.00 0.02 0.00 77 1014.2
20260905173002 88 63 1.7 7.8 0.00 0.02 0.00 76 1014.3
20260905171545 88 13 3.5 6.1 0.00 0.02 0.00 78 1014.4
20260905170045 87 19 2.6 7.0 0.00 0.02 0.00 78 1014.5
20260905164526 88 355 3.5 7.8 0.00 0.02 0.00 77 1014.5
20260905163024 88 66 0.0 4.3 0.00 0.02 0.00 76 1014.5
20260905161504 87 23 3.5 7.0 0.00 0.02 0.00 77 1014.5
20260905160002 87 42 0.0 7.0 0.00 0.02 0.00 78 1014.4
20260905154606 86 5 0.0 5.2 0.00 0.02 0.00 82 1014.3
20260905153039 85 40 0.9 5.2 0.00 0.02 0.00 84 1014.3
20260905151519 85 346 0.9 6.1 0.00 0.02 0.00 85 1014.2
20260905150017 84 360 2.6 5.2 0.00 0.02 0.00 87 1014.1
20260905144507 83 22 4.3 7.8 0.00 0.02 0.00 87 1014.1
20260905143003 83 79 4.3 7.8 0.00 0.02 0.00 87 1014.1
20260905141501 83 48 0.9 5.2 0.00 0.02 0.00 87 1013.9
20260905140058 82 5 0.0 2.6 0.00 0.02 0.00 90 1013.9
20260905134554 81 5 0.0 1.7 0.00 0.02 0.00 92 1013.9
20260905133051 79 31 0.9 2.6 0.00 0.02 0.00 95 1014.0
20260905131548 78 30 0.9 3.5 0.00 0.02 0.00 97 1014.3
20260905130049 77 5 0.0 0.0 0.00 0.02 0.00 99 1013.9
20260905124536 75 5 0.0 0.0 0.00 0.02 0.00 99 1013.7